SCP
0 0 -0 0 0 0 0 0 0 0 0 0 0 0 0 0 0 0 0 0 0 0 0 0 1 1 1 1 1 1 1 1 1 1 0 0 0 0 0 0 0 0 0 0 0 0 0 0 0
0 0 -0 0 0 0 0 0 0 0 0 0 0 0 0 0 0 0 0 0 0 0 0 0 1 1 1 1 1 1 1 1 1 1 0 0 0 0 0 0 0 0 0 0 0 0 0 0 0
0 -0 -0 0 0 0 0 0 0 0 0 0 0 0 0 0 0 0 0 0 0 0 0 0 1 1 1 1 1 1 1 1 1 1 0 0 0 0 0 0 0 0 0 0 0 0 0 0 0
0 -0 -0 0 0 0 0 0 0 0 0 0 0 0 0 0 0 0 0 0 0 0 0 1 1 1 1 1 1 1 1 1 1 1 1 0 0 0 0 0 0 0 0 0 0 0 0 0 0
0 0 0 0 0 0 0 0 0 0 0 0 0 0 0 0 0 0 0 0 1 1 1 1 1 1 1 1 1 1 1 1 1 1 1 1 0 0 0 0 0 0 0 0 0 0 0 0 0
0 0 0 0 0 0 0 0 0 0 0 0 0 0 0 0 0 0 0 1 1 1 1 1 1 1 1 1 1 1 1 1 1 1 1 1 1 0 0 0 0 0 0 0 0 0 0 0 0
0 0 0 0 0 0 0 0 0 0 0 0 0 0 0 0 0 0 1 1 1 1 1 1 1 1 1 1 1 1 1 1 1 1 1 1 0 0 0 0 0 0 0 0 0 0 0 0 0
-0 0 0 0 0 0 0 0 0 0 0 0 0 0 0 0 0 1 1 1 1 1 1 1 1 1 1 1 1 1 1 1 1 1 0 0 0 0 0 0 0 0 0 0 0 0 0 0 0
0 0 0 0 0 0 0 0 0 0 0 0 0 0 0 1 1 1 1 1 1 1 1 1 1 1 1 1 1 1 1 1 1 1 0 0 0 0 0 0 0 0 0 0 0 0 0 0 0
0 0 0 0 0 0 0 0 0 0 0 0 0 0 1 1 1 1 1 1 1 1 1 1 1 1 1 1 1 1 1 1 1 0 0 0 0 0 0 0 0 0 0 0 0 0 0 0 0
0 0 0 0 0 0 0 0 0 0 0 0 0 1 1 1 1 1 1 1 1 1 1 1 1 1 1 1 1 1 1 1 1 0 0 0 0 0 0 0 0 0 0 0 0 0 0 0 0
0 0 0 0 0 0 0 0 0 0 0 0 0 1 1 1 1 1 1 1 0 0 0 0 1 1 1 1 1 1 1 1 1 0 0 0 0 0 0 0 0 0 0 0 0 0 0 0 0
0 0 0 0 0 0 0 0 0 0 0 0 0 1 1 1 1 1 1 0 0 0 0 0 0 0 0 0 0 1 1 1 1 0 0 0 0 0 0 0 0 0 0 0 0 0 0 0 0
0 0 0 0 0 0 0 0 0 0 0 0 0 1 1 1 1 1 1 1 0 0 0 0 0 0 0 0 0 0 0 0 0 0 0 0 0 0 0 0 0 0 0 0 0 0 0 0 0
0 0 0 0 0 0 0 0 0 0 0 0 0 0 0 0 0 0 1 1 1 0 0 0 0 0 0 0 0 0 0 0 0 0 0 0 0 0 0 0 0 0 0 0 0 0 0 0 0
0 0 0 0 0 0 0 0 0 0 0 0 0 0 0 0 0 0 0 1 1 0 0 0 0 0 0 0 0 0 0 0 0 0 0 0 0 0 0 0 0 0 0 0 0 0 0 0 0
0 0 0 0 0 0 0 0 0 0 0 0 0 0 0 0 0 0 0 0 0 0 0 0 0 0 0 0 0 0 0 0 0 0 0 0 0 0 0 0 0 0 0 0 0 0 0 0 0
0 0 0 0 0 0 0 0 0 0 0 0 0 0 0 0 0 0 0 0 0 0 0 0 0 0 0 0 0 0 0 0 0 0 0 0 0 0 0 0 0 0 0 0 0 0 0 0 0
0 0 0 0 0 0 0 0 0 0 0 0 0 0 0 0 0 0 0 0 0 0 0 0 0 0 0 0 0 0 0 0 0 0 0 0 0 0 0 0 0 0 0 0 0 0 0 0 0
0 0 0 0 0 0 0 0 0 0 0 0 0 0 0 0 0 0 0 0 0 0 0 0 0 0 0 0 0 0 0 0 0 0 0 0 0 0 0 0 0 0 0 0 0 0 0 0 0
0 0 0 0 0 0 0 0 0 0 0 0 0 0 0 0 0 0 0 0 0 0 0 0 0 0 0 0 0 0 0 0 0 0 0 0 0 0 0 0 0 0 0 0 0 0 0 0 0
0 0 0 0 0 0 0 0 0 0 0 0 0 0 0 0 0 0 0 0 0 0 0 0 0 0 0 0 0 0 0 0 0 0 0 0 0 0 0 0 0 0 0 0 0 0 0 0 0
0 0 0 0 0 0 0 0 0 0 0 0 0 0 0 0 0 0 0 0 0 0 0 0 0 0 0 0 0 0 0 0 0 0 0 0 0 0 0 0 0 0 0 0 0 0 0 0 0
0 0 0 0 0 0 0 0 0 0 0 0 0 0 0 0 0 0 0 0 0 0 0 0 0 0 0 0 0 0 0 0 0 0 0 0 0 0 0 0 0 0 0 0 0 0 0 0 0
0 0 0 0 0 0 0 0 0 0 0 0 0 0 0 0 0 0 0 0 0 0 0 0 0 0 0 0 0 0 0 0 0 0 0 0 0 0 0 0 0 0 0 0 0 0 0 0 0
0 0 0 0 0 0 0 0 0 0 0 0 0 0 0 0 0 0 0 0 0 0 0 0 0 0 0 0 0 0 0 0 0 0 0 0 0 0 0 0 0 0 0 0 0 0 0 0 0
0 0 0 0 0 0 0 0 0 0 0 0 0 0 0 0 0 0 0 0 0 0 0 0 0 0 0 0 0 0 0 0 0 0 0 0 0 0 0 0 0 0 0 0 0 0 0 0 0
0 0 0 0 0 0 0 0 0 0 0 0 0 0 0 0 0 0 0 0 0 0 0 0 0 0 1 0 0 0 0 0 0 0 0 0 0 0 0 0 0 0 0 0 0 0 0 0 0
0 0 0 0 0 0 0 0 0 0 0 0 0 0 0 0 0 0 0 0 0 0 0 0 0 1 1 1 0 0 0 0 0 0 0 0 0 0 0 0 0 0 0 0 0 0 0 0 0
0 0 0 0 0 0 0 0 0 0 0 0 0 0 0 0 0 0 0 0 0 0 0 0 0 1 1 1 0 0 0 0 0 0 0 0 0 0 0 0 0 0 0 0 0 0 0 0 0
Wind_Speed
0 2 2 3 5 5 1 3 1 1 2 1 1 3 3 3 3 2 0 6 8 10 9 11 13 13 13 13 14 14 14 14 14 14 14 13 13 12 12 11 10 10 10 9 9 8 8 8 7
1 1 3 5 5 2 3 3 1 1 2 0 2 2 2 1 2 3 2 5 8 9 8 10 14 13 13 13 13 14 14 14 14 13 13 13 12 12 11 10 10 9 9 8 8 8 7 6 6
1 2 4 5 4 3 3 2 2 1 1 0 1 2 2 1 1 2 3 8 8 8 7 9 14 13 13 13 13 13 13 13 13 13 13 12 12 11 10 10 9 9 8 8 7 7 6 6 6
3 4 5 5 1 4 4 4 2 1 2 1 2 2 2 2 1 3 7 9 9 7 6 8 13 13 12 12 13 13 13 13 13 12 12 11 11 10 9 9 8 8 7 7 6 6 5 5 5
4 5 5 2 3 3 3 3 2 1 0 1 2 2 2 4 4 8 8 8 8 7 5 6 11 11 11 11 11 12 12 12 12 11 11 10 10 9 8 8 7 7 6 6 5 5 4 4 4
5 5 4 1 3 4 3 2 1 1 1 1 3 2 1 2 5 7 8 7 7 7 5 5 10 11 11 11 11 11 11 11 11 11 10 10 9 8 7 7 6 5 5 5 4 4 4 3 3
5 4 3 2 2 3 2 1 1 0 1 1 3 3 0 1 4 6 7 7 6 6 5 3 5 7 10 10 10 10 10 10 10 10 10 9 8 8 7 6 5 5 4 4 3 3 3 3 2
5 5 2 2 2 4 2 1 1 0 0 1 3 4 3 3 6 7 7 6 5 5 4 3 3 3 4 5 9 10 10 9 9 9 9 8 8 7 6 5 4 4 3 3 2 2 2 2 1
4 5 2 4 5 4 1 1 1 0 1 1 1 2 3 8 9 8 6 5 4 4 3 3 3 3 4 4 6 7 8 8 8 6 8 6 3 2 3 3 3 3 2 2 1 1 1 1 1
4 3 6 5 5 3 1 1 2 1 1 1 2 4 8 9 9 8 7 6 5 5 4 3 3 3 3 3 3 3 3 3 3 3 3 2 2 1 2 1 2 1 1 0 0 0 0 0 0
4 5 4 3 4 3 1 1 1 3 2 4 5 7 10 9 7 7 7 6 6 5 4 3 3 3 3 2 3 2 2 2 3 3 3 3 2 1 1 1 0 1 1 1 1 1 1 1 0
3 4 4 3 1 2 3 2 1 3 5 3 6 9 10 9 8 8 8 6 5 5 4 3 2 3 3 3 3 3 2 2 2 3 3 3 2 1 1 1 0 0 0 0 1 0 1 1 0
3 3 2 3 3 2 2 2 2 2 3 2 6 8 9 9 7 6 6 5 4 5 4 3 3 3 3 3 2 3 3 3 3 2 2 3 2 2 1 1 1 0 0 0 0 0 0 1 1
2 2 3 2 2 0 3 1 2 3 1 3 5 6 7 7 7 5 5 6 5 5 5 4 4 4 4 3 3 2 2 2 3 2 3 3 2 2 2 1 1 0 0 1 0 0 0 0 0
0 2 5 3 1 1 2 2 2 4 3 4 4 4 5 5 6 7 7 6 6 5 4 4 4 4 4 4 3 3 2 2 2 2 3 3 3 2 2 2 1 1 0 1 1 0 0 0 0
2 3 3 5 1 0 3 3 4 2 4 4 3 3 3 4 5 5 5 5 4 4 4 5 5 5 4 3 3 3 2 2 2 2 2 3 3 3 2 2 1 1 1 1 1 1 0 0 0
3 1 3 6 2 1 3 4 4 2 4 4 4 4 4 3 3 3 4 5 5 4 4 4 4 5 4 4 3 3 2 2 2 1 2 2 2 3 2 2 1 1 1 1 1 1 1 1 0
4 3 3 5 3 1 2 5 4 2 4 4 4 4 4 5 5 4 4 5 5 4 4 4 3 3 3 3 2 2 2 1 1 1 1 1 2 2 2 2 2 1 1 0 1 1 1 1 0
3 3 5 7 4 1 3 5 5 3 3 4 4 4 4 5 4 3 3 4 4 4 4 4 4 3 3 2 2 2 1 1 1 1 1 1 1 2 2 2 1 1 1 1 1 1 1 0 0
4 3 5 5 2 2 2 5 5 4 6 6 6 5 5 4 3 3 3 4 5 5 5 5 5 4 4 3 2 2 2 1 1 1 1 1 1 2 2 2 2 2 2 1 1 1 1 0 1
5 6 5 4 2 0 0 5 4 3 2 3 3 4 4 5 6 5 5 4 4 4 5 5 5 5 4 4 3 2 2 1 1 0 0 1 1 2 2 2 2 2 2 2 2 2 2 1 0
6 6 5 3 1 2 1 3 6 3 2 2 2 3 4 4 4 5 5 5 5 5 4 4 4 3 3 4 4 4 3 3 2 1 1 1 2 2 2 2 2 2 2 2 2 2 2 2 1
5 1 1 1 2 1 1 1 7 2 3 5 4 4 4 4 5 5 6 6 5 4 4 3 3 3 3 4 4 4 3 2 1 1 2 1 1 1 2 2 2 2 2 2 2 2 2 2 2
4 4 4 4 4 1 3 3 6 3 4 4 4 3 3 3 3 4 4 3 3 3 3 4 4 3 3 4 4 4 5 4 3 2 2 2 1 1 2 2 2 3 2 2 3 2 3 2 2
4 5 3 4 3 5 2 2 7 4 4 5 5 4 3 2 2 3 4 4 4 4 4 4 5 3 3 3 3 4 4 4 4 3 3 2 1 1 2 3 3 3 3 2 2 2 2 2 3
3 7 6 4 4 4 2 5 6 3 3 3 3 3 2 2 3 3 4 4 4 4 4 5 5 4 3 3 3 2 3 2 2 3 3 3 2 2 2 3 2 2 2 2 2 2 2 2 2
4 3 4 5 1 2 4 5 6 1 2 1 0 1 2 2 3 3 3 3 3 3 3 4 5 4 3 3 2 2 2 3 3 3 2 2 2 2 2 2 2 2 2 2 2 2 1 2 2
3 6 5 4 3 3 4 4 4 3 3 2 2 3 3 2 2 3 3 3 2 2 2 3 3 3 3 3 3 2 2 2 2 2 2 2 2 1 2 2 2 1 2 2 2 2 2 2 2
2 3 4 3 4 4 3 6 5 5 4 4 4 4 3 3 3 2 2 2 2 2 2 3 3 2 2 2 2 2 1 1 1 1 2 2 1 2 2 2 2 2 1 2 2 2 2 2 1
4 5 6 4 3 3 3 8 3 3 3 3 3 3 2 2 2 2 2 2 2 2 2 2 2 2 3 3 2 2 1 1 1 1 1 1 1 1 2 2 2 2 2 2 2 2 2 2 2
Wind_Direction
115 91 84 62 53 47 333 278 244 311 329 342 70 106 135 142 159 199 26 133 133 140 146 149 149 145 141 138 135 131 129 128 129 130 130 130 131 132 133 133 133 133 134 133 132 131 132 133 132
122 112 63 59 76 44 296 269 232 236 203 354 41 75 85 75 81 108 121 137 137 140 144 148 151 149 146 143 141 138 136 134 134 134 134 135 136 136 137 137 136 136 136 134 133 132 131 134 138
124 64 79 73 97 176 244 250 217 263 281 176 67 56 92 113 120 146 155 138 130 134 141 155 154 152 150 147 147 144 141 139 139 139 139 140 140 139 139 140 139 138 137 134 134 133 132 134 140
81 48 54 71 183 224 221 248 242 279 337 43 107 64 43 18 108 132 130 133 130 132 138 157 153 153 152 151 151 149 146 145 144 143 142 141 141 141 143 143 144 144 143 142 140 137 139 139 138
60 73 59 32 269 263 249 254 221 213 323 78 108 95 21 3 83 115 126 132 134 132 133 148 150 153 154 154 154 154 151 149 149 147 144 143 143 145 144 143 143 147 150 150 147 144 143 147 152
58 66 81 266 276 284 272 251 137 82 121 116 110 100 358 38 105 123 124 126 128 132 133 144 153 157 159 157 156 157 154 152 151 150 149 148 149 149 148 147 147 148 151 153 152 153 156 158 163
105 101 152 204 268 294 279 356 69 112 60 159 141 126 156 94 116 118 117 116 118 124 131 139 154 162 164 162 159 159 159 157 156 156 154 155 156 156 154 156 160 162 160 156 154 156 160 161 166
122 106 130 218 215 257 277 353 324 106 221 104 119 148 191 168 125 111 103 102 111 116 124 135 143 151 158 165 167 166 163 159 158 158 157 158 160 160 160 161 165 165 165 164 154 153 165 156 161
92 82 198 214 199 233 227 358 303 133 103 74 100 149 151 129 124 117 110 109 123 132 135 148 156 153 154 163 170 164 164 162 159 161 161 158 150 149 153 156 165 166 174 185 177 186 182 162 157
99 148 223 216 193 196 224 224 231 60 44 62 73 80 116 128 136 139 144 152 155 159 162 158 164 156 152 162 143 143 152 150 146 144 147 137 129 141 142 150 185 173 166 202 291 302 271 265 92
157 195 229 241 207 182 187 251 181 138 245 214 180 155 144 144 150 157 165 169 172 167 161 154 164 152 149 149 140 138 142 142 147 147 141 134 125 125 112 89 348 337 4 11 10 5 352 348 130
180 241 233 256 224 173 200 191 163 202 231 204 164 157 154 158 168 174 177 178 167 159 164 161 164 154 145 137 142 143 146 148 150 153 145 142 136 124 110 101 60 31 24 29 27 26 350 343 325
205 253 261 249 270 216 183 201 183 255 248 134 131 148 164 170 179 180 173 168 162 165 171 173 173 158 143 131 136 137 144 148 148 141 140 137 136 143 134 132 107 66 95 105 52 42 10 343 334
230 251 286 283 265 215 140 241 132 256 174 126 140 162 174 179 181 175 172 172 175 174 176 178 172 161 143 140 139 142 146 151 148 147 143 135 134 139 135 128 123 151 162 159 157 215 209 270 309
340 344 331 311 293 223 112 352 235 218 152 144 157 168 176 187 180 183 189 183 179 177 173 177 173 154 144 137 136 139 135 159 153 153 143 146 146 149 149 150 151 200 164 145 136 101 171 105 52
27 27 328 303 348 274 109 268 268 193 152 166 169 174 187 197 190 191 186 175 173 168 174 184 170 149 145 140 135 131 144 148 147 151 147 156 162 156 141 141 166 184 142 144 148 135 91 51 36
21 339 278 297 305 140 144 244 263 173 151 178 190 191 196 200 208 201 181 176 170 171 175 176 167 154 154 147 133 128 132 138 141 142 151 158 164 160 150 157 165 156 138 147 169 126 148 163 293
242 245 265 271 287 114 211 253 265 204 171 191 198 203 203 206 213 198 180 169 161 163 169 167 169 149 141 135 121 110 110 126 130 144 168 157 165 160 153 160 160 146 132 128 121 141 136 166 216
206 215 256 265 263 184 242 264 271 226 190 205 212 205 207 220 210 173 172 163 154 162 169 174 175 171 155 152 154 152 172 183 171 184 191 181 175 161 160 173 154 149 160 183 168 145 111 39 58
199 231 258 285 280 202 252 280 273 225 208 209 211 207 206 212 184 175 175 172 177 178 179 182 183 182 179 178 169 153 153 168 189 208 204 200 190 174 177 168 175 177 163 160 171 154 145 154 130
226 208 226 236 298 345 14 308 280 268 221 228 229 215 196 196 190 187 186 186 186 192 194 190 189 186 180 170 136 113 89 71 99 147 197 219 200 186 179 180 179 181 173 185 194 186 168 182 143
244 225 209 216 221 280 140 288 286 276 285 252 241 227 205 199 187 190 192 190 197 207 197 187 178 173 165 160 159 159 164 183 199 189 200 220 205 189 183 184 177 183 181 185 198 184 186 170 188
218 190 149 157 160 331 350 208 286 333 282 271 248 231 215 202 193 200 201 201 200 196 180 178 160 166 163 164 172 170 182 197 180 161 177 198 223 203 186 187 185 191 190 191 192 184 185 181 189
128 66 46 52 75 306 240 187 279 248 241 268 257 238 225 205 200 199 191 172 176 173 163 161 155 171 173 172 178 182 188 185 166 172 187 202 216 217 205 199 201 199 195 196 198 192 190 195 190
94 91 25 354 4 258 244 206 250 252 241 238 246 238 229 198 181 176 169 164 173 170 167 164 159 175 183 177 184 188 193 187 188 193 198 204 209 220 217 207 208 205 203 198 186 186 201 193 187
178 144 160 208 232 275 295 239 253 255 267 254 240 221 196 184 177 179 178 171 172 172 170 166 165 177 182 187 198 192 190 189 200 204 202 206 211 220 211 200 205 204 194 182 167 169 194 188 189
149 181 168 138 165 276 277 278 301 303 322 310 228 198 211 204 183 181 168 162 165 165 167 171 168 174 187 189 185 191 193 197 209 215 206 212 222 220 203 195 187 184 181 177 161 169 189 180 192
142 144 105 123 159 257 282 270 259 260 260 263 239 229 226 203 193 183 170 163 161 162 157 158 166 184 194 184 185 186 192 199 197 186 204 210 217 210 193 185 162 169 182 182 170 177 192 182 207
102 105 111 126 161 172 257 270 231 212 210 211 223 227 222 194 196 189 176 161 150 144 156 168 173 170 170 178 179 166 186 182 160 169 205 207 204 191 190 185 170 177 193 193 174 183 184 191 207
162 162 146 154 225 186 196 267 274 217 209 198 211 218 211 194 183 169 161 145 148 163 173 177 179 177 189 184 170 172 178 150 150 186 208 198 200 204 194 182 172 194 204 197 190 205 193 191 205